| time (UTC) | temp F | wind direction | speed MPH | gust MPH | rain 1hr in | rain 24hr in | rain mn in | humidity % | barometer mb |
| 20260504044546 | 62 | 86 | 6.0 | 7.0 | 0.00 | 0.00 | 0.00 | 60 | 1006.3 |
| 20260504043052 | 62 | 73 | 5.0 | 8.0 | 0.00 | 0.00 | 0.00 | 62 | 1006.3 |
| 20260504041545 | 63 | 85 | 7.0 | 9.0 | 0.00 | 0.00 | 0.00 | 60 | 1006.2 |
| 20260504040043 | 64 | 91 | 6.0 | 8.0 | 0.00 | 0.00 | 0.00 | 59 | 1006.0 |
| 20260504034543 | 65 | 84 | 4.0 | 5.0 | 0.00 | 0.00 | 0.00 | 58 | 1006.0 |
| 20260504033043 | 68 | 91 | 5.0 | 5.0 | 0.00 | 0.00 | 0.00 | 52 | 1005.8 |
| 20260504031543 | 68 | 98 | 4.0 | 6.0 | 0.00 | 0.00 | 0.00 | 53 | 1005.6 |
| 20260504030041 | 72 | 85 | 3.0 | 4.0 | 0.00 | 0.00 | 0.00 | 53 | 1005.6 |
| 20260504024544 | 75 | 40 | 2.0 | 3.0 | 0.00 | 0.00 | 0.00 | 44 | 1005.5 |
| 20260504023040 | 78 | 30 | 0.0 | 3.0 | 0.00 | 0.00 | 0.00 | 37 | 1005.6 |
| 20260504021537 | 79 | 59 | 0.0 | 1.0 | 0.00 | 0.00 | 0.00 | 38 | 1005.7 |
| 20260504020048 | 79 | 358 | 0.0 | 7.0 | 0.00 | 0.00 | 0.00 | 37 | 1005.9 |
| 20260504014543 | 79 | 21 | 4.0 | 6.0 | 0.00 | 0.00 | 0.00 | 34 | 1006.1 |
| 20260504013040 | 79 | 7 | 2.0 | 10.0 | 0.00 | 0.00 | 0.00 | 34 | 1006.2 |
| 20260504011531 | 79 | 345 | 5.0 | 11.0 | 0.00 | 0.00 | 0.00 | 31 | 1006.3 |
| 20260504010028 | 79 | 27 | 4.0 | 12.0 | 0.00 | 0.00 | 0.00 | 32 | 1006.5 |
| 20260504004532 | 79 | 347 | 6.0 | 11.0 | 0.00 | 0.00 | 0.00 | 32 | 1006.7 |
| 20260504003024 | 80 | 358 | 4.0 | 10.0 | 0.00 | 0.00 | 0.00 | 30 | 1006.8 |
| 20260504001524 | 80 | 44 | 5.0 | 10.0 | 0.00 | 0.00 | 0.00 | 34 | 1006.9 |
| 20260504000020 | 79 | 53 | 5.0 | 9.0 | 0.00 | 0.00 | 0.00 | 31 | 1007.2 |
| 20260503234517 | 80 | 360 | 7.0 | 11.0 | 0.00 | 0.00 | 0.00 | 34 | 1007.3 |
| 20260503233116 | 80 | 335 | 5.0 | 12.0 | 0.00 | 0.00 | 0.00 | 29 | 1007.4 |
| 20260503231513 | 80 | 229 | 2.0 | 9.0 | 0.00 | 0.00 | 0.00 | 30 | 1007.6 |
| 20260503230010 | 79 | 51 | 4.0 | 10.0 | 0.00 | 0.00 | 0.00 | 28 | 1007.7 |
| 20260503224507 | 79 | 41 | 7.0 | 13.0 | 0.00 | 0.00 | 0.00 | 35 | 1007.9 |
| 20260503223006 | 79 | 13 | 4.0 | 13.0 | 0.00 | 0.00 | 0.00 | 30 | 1008.1 |
| 20260503221503 | 79 | 15 | 5.0 | 13.0 | 0.00 | 0.00 | 0.00 | 33 | 1008.2 |
| 20260503220100 | 79 | 54 | 4.0 | 10.0 | 0.00 | 0.00 | 0.00 | 36 | 1008.4 |
| 20260503220001 | 79 | 26 | 4.0 | 10.0 | 0.00 | 0.00 | 0.00 | 34 | 1008.5 |
| 20260503214601 | 79 | 22 | 5.0 | 9.0 | 0.00 | 0.00 | 0.00 | 29 | 1008.6 |
| 20260503213055 | 79 | 358 | 5.0 | 9.0 | 0.00 | 0.00 | 0.00 | 28 | 1008.7 |
| 20260503211553 | 79 | 43 | 6.0 | 10.0 | 0.00 | 0.00 | 0.00 | 32 | 1008.9 |
| 20260503210051 | 78 | 310 | 7.0 | 9.0 | 0.00 | 0.00 | 0.00 | 34 | 1009.0 |
| 20260503204548 | 78 | 85 | 5.0 | 14.0 | 0.00 | 0.00 | 0.00 | 41 | 1009.3 |
| 20260503203102 | 78 | 91 | 2.0 | 9.0 | 0.00 | 0.00 | 0.00 | 37 | 1009.3 |
| 20260503201541 | 77 | 263 | 0.0 | 4.0 | 0.00 | 0.00 | 0.00 | 40 | 1009.6 |
| 20260503200038 | 76 | 273 | 0.0 | 5.0 | 0.00 | 0.00 | 0.00 | 40 | 1009.8 |
| 20260503194542 | 76 | 236 | 1.0 | 5.0 | 0.00 | 0.00 | 0.00 | 42 | 1010.0 |
| 20260503193037 | 75 | 137 | 1.0 | 6.0 | 0.00 | 0.00 | 0.00 | 41 | 1010.2 |
| 20260503191531 | 74 | 239 | 4.0 | 5.0 | 0.00 | 0.00 | 0.00 | 42 | 1010.4 |
| 20260503190038 | 73 | 238 | 3.0 | 5.0 | 0.00 | 0.00 | 0.00 | 42 | 1010.5 |
| 20260503184529 | 74 | 263 | 1.0 | 5.0 | 0.00 | 0.00 | 0.00 | 44 | 1010.7 |
| 20260503183026 | 72 | 231 | 3.0 | 5.0 | 0.00 | 0.00 | 0.00 | 43 | 1010.8 |
| 20260503181524 | 72 | 156 | 2.0 | 6.0 | 0.00 | 0.00 | 0.00 | 43 | 1011.1 |
| 20260503180021 | 71 | 195 | 3.0 | 7.0 | 0.00 | 0.00 | 0.00 | 46 | 1011.2 |
| 20260503174518 | 70 | 275 | 2.0 | 6.0 | 0.00 | 0.00 | 0.00 | 46 | 1011.4 |
| 20260503173016 | 69 | 271 | 2.0 | 6.0 | 0.00 | 0.00 | 0.00 | 47 | 1011.4 |
| 20260503171512 | 68 | 255 | 5.0 | 7.0 | 0.00 | 0.00 | 0.00 | 49 | 1011.4 |
| 20260503100106 | 59 | 81 | 6.0 | 10.0 | 0.00 | 0.00 | 0.00 | 56 | 1010.7 |
| 20260503081536 | 61 | 131 | 2.0 | 8.0 | 0.00 | 0.00 | 0.00 | 54 | 1010.4 |
| 20260503071524 | 63 | 72 | 12.0 | 14.0 | 0.00 | 0.00 | 0.00 | 51 | 1009.9 |